Year,Month,Day,Hour,Minute,Value (Times are PST for temperature in C)
2015,06,29,10,43,25.50
2015,06,29,10,44,25.50
2015,06,29,10,45,25.50
2015,06,29,10,46,25.50
2015,06,29,10,47,25.50
2015,06,29,10,48,25.50
2015,06,29,10,49,25.50
2015,06,29,10,50,25.60
2015,06,29,10,51,25.60
2015,06,29,10,52,25.60
2015,06,29,10,53,25.70
2015,06,29,10,54,25.80
2015,06,29,10,55,25.80
2015,06,29,10,56,25.80
2015,06,29,10,57,25.80
2015,06,29,10,58,25.80
2015,06,29,10,59,25.80
2015,06,29,11,00,25.80
2015,06,29,11,01,25.80
2015,06,29,11,02,25.80
2015,06,29,11,03,25.90
2015,06,29,11,04,26.00
2015,06,29,11,05,26.20
2015,06,29,11,06,26.30
2015,06,29,11,07,26.30
2015,06,29,11,08,26.30
2015,06,29,11,09,26.40
2015,06,29,11,10,26.50
2015,06,29,11,11,26.60
2015,06,29,11,12,26.60
2015,06,29,11,13,26.60
2015,06,29,11,14,26.60
2015,06,29,11,15,26.70
2015,06,29,11,16,26.60
2015,06,29,11,17,26.70
2015,06,29,11,18,26.70
2015,06,29,11,19,26.70
2015,06,29,11,20,26.60
2015,06,29,11,21,26.30
2015,06,29,11,22,26.10
2015,06,29,11,23,25.90
2015,06,29,11,24,25.80
2015,06,29,11,25,25.80
2015,06,29,11,26,25.90
2015,06,29,11,27,26.00
2015,06,29,11,28,26.00
2015,06,29,11,29,26.00
2015,06,29,11,30,26.00
2015,06,29,11,31,26.10
2015,06,29,11,32,26.20
2015,06,29,11,33,26.30
2015,06,29,11,34,26.40
2015,06,29,11,35,26.50
2015,06,29,11,36,26.40
2015,06,29,11,37,26.60
2015,06,29,11,38,26.60
2015,06,29,11,39,26.50
2015,06,29,11,40,26.40
2015,06,29,11,41,26.50
2015,06,29,11,42,26.60
2015,06,29,11,43,26.60
2015,06,29,11,44,26.60
2015,06,29,11,45,26.40
2015,06,29,11,46,26.30
2015,06,29,11,47,26.20
2015,06,29,11,48,25.90
2015,06,29,11,49,25.90
2015,06,29,11,50,25.90
2015,06,29,11,51,26.00
2015,06,29,11,52,26.20
2015,06,29,11,53,26.30
2015,06,29,11,54,26.30
2015,06,29,11,55,26.40
2015,06,29,11,56,26.60
2015,06,29,11,57,26.80
2015,06,29,11,58,27.10
2015,06,29,11,59,27.20
2015,06,29,12,00,27.30
2015,06,29,12,01,27.30
2015,06,29,12,02,27.30
2015,06,29,12,03,27.30
2015,06,29,12,04,27.30
2015,06,29,12,05,27.30
2015,06,29,12,06,27.20
2015,06,29,12,07,27.20
2015,06,29,12,08,27.30
2015,06,29,12,09,27.30
2015,06,29,12,10,27.20
2015,06,29,12,11,27.20
2015,06,29,12,12,27.20
2015,06,29,12,13,27.30
2015,06,29,12,14,27.30
2015,06,29,12,15,27.30
2015,06,29,12,16,27.30
2015,06,29,12,17,27.30
2015,06,29,12,18,27.30
2015,06,29,12,19,27.30
2015,06,29,12,20,27.20
2015,06,29,12,21,27.20
2015,06,29,12,22,27.30
2015,06,29,12,23,27.30
2015,06,29,12,24,27.40
2015,06,29,12,25,27.50
2015,06,29,12,26,27.60
2015,06,29,12,27,27.70
2015,06,29,12,28,27.70
2015,06,29,12,29,27.70
2015,06,29,12,30,27.70
2015,06,29,12,31,27.70
2015,06,29,12,32,27.70
2015,06,29,12,33,27.80
2015,06,29,12,34,28.00
2015,06,29,12,35,28.00
2015,06,29,12,36,27.90
2015,06,29,12,37,27.90
2015,06,29,12,38,27.90
2015,06,29,12,39,27.90
2015,06,29,12,40,27.80
2015,06,29,12,41,27.70
2015,06,29,12,42,27.50
2015,06,29,12,43,27.30
2015,06,29,12,44,27.30
2015,06,29,12,45,27.30
2015,06,29,12,46,27.40
2015,06,29,12,47,27.60
2015,06,29,12,48,27.70
2015,06,29,12,49,27.90
2015,06,29,12,50,28.00
2015,06,29,12,51,28.00
2015,06,29,12,52,28.20
2015,06,29,12,53,28.30
2015,06,29,12,54,28.30
2015,06,29,12,55,28.50
2015,06,29,12,56,28.60
2015,06,29,12,57,28.60
2015,06,29,12,58,28.70
2015,06,29,12,59,28.80
2015,06,29,13,00,29.00
2015,06,29,13,01,29.20
2015,06,29,13,02,29.40
2015,06,29,13,03,29.60
2015,06,29,13,04,29.70
2015,06,29,13,05,29.60
2015,06,29,13,06,29.60
2015,06,29,13,07,29.80
2015,06,29,13,08,29.80
2015,06,29,13,09,29.70
2015,06,29,13,10,29.60
2015,06,29,13,11,29.50
2015,06,29,13,12,29.50
2015,06,29,13,13,29.40
2015,06,29,13,14,29.40
2015,06,29,13,15,29.50
2015,06,29,13,16,29.60
2015,06,29,13,17,29.60
2015,06,29,13,18,29.70
2015,06,29,13,19,29.80
2015,06,29,13,20,29.80
2015,06,29,13,21,29.80
2015,06,29,13,22,29.90
2015,06,29,13,23,29.90
2015,06,29,13,24,29.90
2015,06,29,13,25,29.90
2015,06,29,13,26,29.80
2015,06,29,13,27,29.80
2015,06,29,13,28,29.80
2015,06,29,13,29,29.70
2015,06,29,13,30,29.70
2015,06,29,13,31,29.70
2015,06,29,13,32,29.60
2015,06,29,13,33,29.50
2015,06,29,13,34,29.50
2015,06,29,13,35,29.50
2015,06,29,13,36,29.50
2015,06,29,13,37,29.30
2015,06,29,13,38,29.20
2015,06,29,13,39,29.00
2015,06,29,13,40,28.90
2015,06,29,13,41,29.00
2015,06,29,13,42,29.10
2015,06,29,13,43,29.20
2015,06,29,13,44,29.30
2015,06,29,13,45,29.20
2015,06,29,13,46,29.30
2015,06,29,13,47,29.30
2015,06,29,13,48,29.40
2015,06,29,13,49,29.40
2015,06,29,13,50,29.40
2015,06,29,13,51,29.40
2015,06,29,13,52,29.40
2015,06,29,13,53,29.30
2015,06,29,13,54,29.10
2015,06,29,13,55,28.90
2015,06,29,13,56,28.80
2015,06,29,13,57,28.80
2015,06,29,13,58,28.80
2015,06,29,13,59,28.90
2015,06,29,14,00,28.80
2015,06,29,14,01,28.70
2015,06,29,14,02,28.80
2015,06,29,14,03,28.90
2015,06,29,14,04,28.90
2015,06,29,14,05,29.00
2015,06,29,14,06,28.90
2015,06,29,14,07,28.80
2015,06,29,14,08,28.70
2015,06,29,14,09,28.70
2015,06,29,14,10,28.80
2015,06,29,14,11,28.90
2015,06,29,14,12,28.70
2015,06,29,14,13,28.60
2015,06,29,14,14,28.70
2015,06,29,14,15,28.70
2015,06,29,14,16,28.70
2015,06,29,14,17,28.80
2015,06,29,14,18,28.70
2015,06,29,14,19,28.80
2015,06,29,14,20,28.90
2015,06,29,14,21,28.90
2015,06,29,14,22,28.90
2015,06,29,14,23,28.90
2015,06,29,14,24,29.00
2015,06,29,14,25,29.20
2015,06,29,14,26,29.30
2015,06,29,14,27,29.30
2015,06,29,14,28,29.30
2015,06,29,14,29,29.40
2015,06,29,14,30,29.40
2015,06,29,14,31,29.40
2015,06,29,14,32,29.30
2015,06,29,14,33,29.30
2015,06,29,14,34,29.20
2015,06,29,14,35,29.20
2015,06,29,14,36,29.20
2015,06,29,14,37,29.30
2015,06,29,14,38,29.50
2015,06,29,14,39,29.60
2015,06,29,14,40,29.50
2015,06,29,14,41,29.50
2015,06,29,14,42,29.60
2015,06,29,14,43,29.60
2015,06,29,14,44,29.70
2015,06,29,14,45,29.80
2015,06,29,14,46,29.80
2015,06,29,14,47,29.70
2015,06,29,14,48,29.60
2015,06,29,14,49,29.80
2015,06,29,14,50,29.90
2015,06,29,14,51,30.10
2015,06,29,14,52,30.10
2015,06,29,14,53,30.10
2015,06,29,14,54,30.10
2015,06,29,14,55,30.20
2015,06,29,14,56,30.30
2015,06,29,14,57,30.30
2015,06,29,14,58,30.30
2015,06,29,14,59,30.30
2015,06,29,15,00,30.40
2015,06,29,15,01,30.40
2015,06,29,15,02,30.40
2015,06,29,15,03,30.50
2015,06,29,15,04,30.40
2015,06,29,15,05,30.50
2015,06,29,15,06,30.60
2015,06,29,15,07,30.70
2015,06,29,15,08,30.70
2015,06,29,15,09,30.60
2015,06,29,15,10,30.50
2015,06,29,15,11,30.40
2015,06,29,15,12,30.40
2015,06,29,15,13,30.40
2015,06,29,15,14,30.60
2015,06,29,15,15,30.80
2015,06,29,15,16,30.90
2015,06,29,15,17,30.90
2015,06,29,15,18,31.00
2015,06,29,15,19,31.10
2015,06,29,15,20,31.20
2015,06,29,15,21,31.10
2015,06,29,15,22,31.10
2015,06,29,15,23,31.10
2015,06,29,15,24,31.10
2015,06,29,15,25,31.20
2015,06,29,15,26,31.20
2015,06,29,15,27,31.10
2015,06,29,15,28,31.00
2015,06,29,15,29,31.10
2015,06,29,15,30,31.10
2015,06,29,15,31,31.00
2015,06,29,15,32,30.90
2015,06,29,15,33,30.70
2015,06,29,15,34,30.50
2015,06,29,15,35,30.40
2015,06,29,15,36,30.30
2015,06,29,15,37,30.30
2015,06,29,15,38,30.40
2015,06,29,15,39,30.50
2015,06,29,15,40,30.60
2015,06,29,15,41,30.60
2015,06,29,15,42,30.40
2015,06,29,15,43,30.40
2015,06,29,15,44,30.40
2015,06,29,15,45,30.60
2015,06,29,15,46,30.80
2015,06,29,15,47,30.90
2015,06,29,15,48,30.90
2015,06,29,15,49,30.90
2015,06,29,15,50,30.90
2015,06,29,15,51,30.90
2015,06,29,15,52,30.90
2015,06,29,15,53,30.90
2015,06,29,15,54,30.80
2015,06,29,15,55,30.70
2015,06,29,15,56,30.70
2015,06,29,15,57,30.80
2015,06,29,15,58,30.80
2015,06,29,15,59,30.80
2015,06,29,16,00,30.80
2015,06,29,16,01,30.80
2015,06,29,16,02,30.70
2015,06,29,16,03,30.60
2015,06,29,16,04,30.50
2015,06,29,16,05,30.40
2015,06,29,16,06,30.30
2015,06,29,16,07,30.30
2015,06,29,16,08,30.30
2015,06,29,16,09,30.20
2015,06,29,16,10,30.20
2015,06,29,16,11,30.30
2015,06,29,16,12,30.30
2015,06,29,16,13,30.20
2015,06,29,16,14,30.10
2015,06,29,16,15,30.00
2015,06,29,16,16,29.80
2015,06,29,16,17,29.70
2015,06,29,16,18,29.70
2015,06,29,16,19,29.80
2015,06,29,16,20,29.80
2015,06,29,16,21,29.80
2015,06,29,16,22,29.70
2015,06,29,16,23,29.70
2015,06,29,16,24,29.60
2015,06,29,16,25,29.60
2015,06,29,16,26,29.40
2015,06,29,16,27,29.40
2015,06,29,16,28,29.40
2015,06,29,16,29,29.20
2015,06,29,16,30,29.20
2015,06,29,16,31,29.20
2015,06,29,16,32,29.20
2015,06,29,16,33,29.20
2015,06,29,16,34,29.20
2015,06,29,16,35,29.20
2015,06,29,16,36,29.20
2015,06,29,16,37,29.20
2015,06,29,16,38,29.20
2015,06,29,16,39,29.20
2015,06,29,16,40,29.20
2015,06,29,16,41,29.20
2015,06,29,16,42,29.20
2015,06,29,16,43,29.30
2015,06,29,16,44,29.30
2015,06,29,16,45,29.30
2015,06,29,16,46,29.30
2015,06,29,16,47,29.30
2015,06,29,16,48,29.40
2015,06,29,16,49,29.40
2015,06,29,16,50,29.50
2015,06,29,16,51,29.60
2015,06,29,16,52,29.70
2015,06,29,16,53,29.70
2015,06,29,16,54,29.70
2015,06,29,16,55,29.70
2015,06,29,16,56,29.80
2015,06,29,16,57,29.80
2015,06,29,16,58,29.70
2015,06,29,16,59,29.60
2015,06,29,17,00,29.60
2015,06,29,17,01,29.50
2015,06,29,17,02,29.50
2015,06,29,17,03,29.60
2015,06,29,17,04,29.60
2015,06,29,17,05,29.70
2015,06,29,17,06,29.70
2015,06,29,17,07,29.70
2015,06,29,17,08,29.50
2015,06,29,17,09,29.50
2015,06,29,17,10,29.50
2015,06,29,17,11,29.40
2015,06,29,17,12,29.40
2015,06,29,17,13,29.40
2015,06,29,17,14,29.50
2015,06,29,17,15,29.50
2015,06,29,17,16,29.50
2015,06,29,17,17,29.50
2015,06,29,17,18,29.40
2015,06,29,17,19,29.50
2015,06,29,17,20,29.40
2015,06,29,17,21,29.40
2015,06,29,17,22,29.40
2015,06,29,17,23,29.30
2015,06,29,17,24,29.40
2015,06,29,17,25,29.30
2015,06,29,17,26,29.40
2015,06,29,17,27,29.40
2015,06,29,17,28,29.40
2015,06,29,17,29,29.30
2015,06,29,17,30,29.30
2015,06,29,17,31,29.30
2015,06,29,17,32,29.20
2015,06,29,17,33,29.20
2015,06,29,17,34,29.10
2015,06,29,17,35,29.10
2015,06,29,17,36,29.10
2015,06,29,17,37,29.10
2015,06,29,17,38,29.10
2015,06,29,17,39,29.10
2015,06,29,17,40,29.10
2015,06,29,17,41,29.10
2015,06,29,17,42,29.10
2015,06,29,17,43,29.10
2015,06,29,17,44,29.10
2015,06,29,17,45,29.10
2015,06,29,17,46,29.10
2015,06,29,17,47,29.10
2015,06,29,17,48,29.10
2015,06,29,17,49,29.10
2015,06,29,17,50,29.10
2015,06,29,17,51,29.10
2015,06,29,17,52,29.10
2015,06,29,17,53,29.10
2015,06,29,17,54,29.10
2015,06,29,17,55,29.10
2015,06,29,17,56,29.10
2015,06,29,17,57,29.10
2015,06,29,17,58,29.10
2015,06,29,17,59,29.00
2015,06,29,18,00,28.90
2015,06,29,18,01,28.90
2015,06,29,18,02,28.80
2015,06,29,18,03,28.80
2015,06,29,18,04,28.80
2015,06,29,18,05,28.80
2015,06,29,18,06,28.80
2015,06,29,18,07,28.80
2015,06,29,18,08,28.80
2015,06,29,18,09,28.70
2015,06,29,18,10,28.60
2015,06,29,18,11,28.60
2015,06,29,18,12,28.60
2015,06,29,18,13,28.60
2015,06,29,18,14,28.60
2015,06,29,18,15,28.40
2015,06,29,18,16,28.40
2015,06,29,18,17,28.40
2015,06,29,18,18,28.30
2015,06,29,18,19,28.30
2015,06,29,18,20,28.30
2015,06,29,18,21,28.20
2015,06,29,18,22,28.20
2015,06,29,18,23,28.10
2015,06,29,18,24,28.00
2015,06,29,18,25,28.00
2015,06,29,18,26,28.00
2015,06,29,18,27,28.00
2015,06,29,18,28,27.90
2015,06,29,18,29,27.90
2015,06,29,18,30,27.90
2015,06,29,18,31,27.80
2015,06,29,18,32,27.80
2015,06,29,18,33,27.80
2015,06,29,18,34,27.80
2015,06,29,18,35,27.90
2015,06,29,18,36,28.00
2015,06,29,18,37,28.00
2015,06,29,18,38,28.10
2015,06,29,18,39,28.10
2015,06,29,18,40,28.10
2015,06,29,18,41,28.10
2015,06,29,18,42,28.10
2015,06,29,18,43,28.10
2015,06,29,18,44,28.10
2015,06,29,18,45,28.00
2015,06,29,18,46,28.00
2015,06,29,18,47,28.00
2015,06,29,18,48,28.00
2015,06,29,18,49,28.00
2015,06,29,18,50,28.00
2015,06,29,18,51,28.00
2015,06,29,18,52,28.00
2015,06,29,18,53,28.00
2015,06,29,18,54,28.00
2015,06,29,18,55,28.10
2015,06,29,18,56,28.10
2015,06,29,18,57,28.10
2015,06,29,18,58,28.10
2015,06,29,18,59,28.10
2015,06,29,19,00,28.10
2015,06,29,19,01,28.00
2015,06,29,19,02,28.00
2015,06,29,19,03,28.00
2015,06,29,19,04,27.90
2015,06,29,19,05,27.80
2015,06,29,19,06,27.80
2015,06,29,19,07,27.80
2015,06,29,19,08,27.70
2015,06,29,19,09,27.60
2015,06,29,19,10,27.50
2015,06,29,19,11,27.40
2015,06,29,19,12,27.30
2015,06,29,19,13,27.30
2015,06,29,19,14,27.30
2015,06,29,19,15,27.30
2015,06,29,19,16,27.20
2015,06,29,19,17,27.20
2015,06,29,19,18,27.20
2015,06,29,19,19,27.10
2015,06,29,19,20,27.00
2015,06,29,19,21,26.90
2015,06,29,19,22,26.90
2015,06,29,19,23,26.90
2015,06,29,19,24,26.80
2015,06,29,19,25,26.70
2015,06,29,19,26,26.70
2015,06,29,19,27,26.60
2015,06,29,19,28,26.60
2015,06,29,19,29,26.60
2015,06,29,19,30,26.50
2015,06,29,19,31,26.40
2015,06,29,19,32,26.30
2015,06,29,19,33,26.20
2015,06,29,19,34,26.20
2015,06,29,19,35,26.30
2015,06,29,19,36,26.30
2015,06,29,19,37,26.30
2015,06,29,19,38,26.20
2015,06,29,19,39,26.20
2015,06,29,19,40,26.20
2015,06,29,19,41,26.20
2015,06,29,19,42,26.10
2015,06,29,19,43,26.10
2015,06,29,19,44,26.10
2015,06,29,19,45,26.10
2015,06,29,19,46,26.20
2015,06,29,19,47,26.20
2015,06,29,19,48,26.20
2015,06,29,19,49,26.20
2015,06,29,19,50,26.30
2015,06,29,19,51,26.30
2015,06,29,19,52,26.30
2015,06,29,19,53,26.30
2015,06,29,19,54,26.20
2015,06,29,19,55,26.20
2015,06,29,19,56,26.20
2015,06,29,19,57,26.20
2015,06,29,19,58,26.20
2015,06,29,19,59,26.10
2015,06,29,20,00,26.10
2015,06,29,20,01,26.10
2015,06,29,20,02,26.00
2015,06,29,20,03,26.00
2015,06,29,20,04,26.00
2015,06,29,20,05,26.00
2015,06,29,20,06,25.90
2015,06,29,20,07,25.90
2015,06,29,20,08,25.90
2015,06,29,20,09,25.90
2015,06,29,20,10,25.90
2015,06,29,20,11,25.80
2015,06,29,20,12,25.80
2015,06,29,20,13,25.80
2015,06,29,20,14,25.70
2015,06,29,20,15,25.70
2015,06,29,20,16,25.60
2015,06,29,20,17,25.60
2015,06,29,20,18,25.60
2015,06,29,20,19,25.50
2015,06,29,20,20,25.40
2015,06,29,20,21,25.40
2015,06,29,20,22,25.30
2015,06,29,20,23,25.30
2015,06,29,20,24,25.20
2015,06,29,20,25,25.10
2015,06,29,20,26,25.10
2015,06,29,20,27,25.00
2015,06,29,20,28,24.90
2015,06,29,20,29,24.90
2015,06,29,20,30,24.90
2015,06,29,20,31,24.80
2015,06,29,20,32,24.80
2015,06,29,20,33,24.70
2015,06,29,20,34,24.70
2015,06,29,20,35,24.70
2015,06,29,20,36,24.60
2015,06,29,20,37,24.60
2015,06,29,20,38,24.60
2015,06,29,20,39,24.50
2015,06,29,20,40,24.50
2015,06,29,20,41,24.50
2015,06,29,20,42,24.50
2015,06,29,20,43,24.40
2015,06,29,20,44,24.40
2015,06,29,20,45,24.40
2015,06,29,20,46,24.40
2015,06,29,20,47,24.40
2015,06,29,20,48,24.40
2015,06,29,20,49,24.30
2015,06,29,20,50,24.30
2015,06,29,20,51,24.30
2015,06,29,20,52,24.30
2015,06,29,20,53,24.30
2015,06,29,20,54,24.30
2015,06,29,20,55,24.30
2015,06,29,20,56,24.30
2015,06,29,20,57,24.20
2015,06,29,20,58,24.20
2015,06,29,20,59,24.20
2015,06,29,21,00,24.20
2015,06,29,21,01,24.10
2015,06,29,21,02,24.10
2015,06,29,21,03,24.10
2015,06,29,21,04,24.10
2015,06,29,21,05,24.10
2015,06,29,21,06,24.10
2015,06,29,21,07,24.10
2015,06,29,21,08,24.10
2015,06,29,21,09,24.10
2015,06,29,21,10,24.10
2015,06,29,21,11,24.00
2015,06,29,21,12,23.90
2015,06,29,21,13,23.90
2015,06,29,21,14,23.90
2015,06,29,21,15,23.90
2015,06,29,21,16,23.80
2015,06,29,21,17,23.80
2015,06,29,21,18,23.80
2015,06,29,21,19,23.80
2015,06,29,21,20,23.80
2015,06,29,21,21,23.70
2015,06,29,21,22,23.70
2015,06,29,21,23,23.70
2015,06,29,21,24,23.70
2015,06,29,21,25,23.70
2015,06,29,21,26,23.70
2015,06,29,21,27,23.70
2015,06,29,21,28,23.70
2015,06,29,21,29,23.70
2015,06,29,21,30,23.70
2015,06,29,21,31,23.70
2015,06,29,21,32,23.70
2015,06,29,21,33,23.70
2015,06,29,21,34,23.70
2015,06,29,21,35,23.70
2015,06,29,21,36,23.70
2015,06,29,21,37,23.70
2015,06,29,21,38,23.70
2015,06,29,21,39,23.70
2015,06,29,21,40,23.70
2015,06,29,21,41,23.70
2015,06,29,21,42,23.70
2015,06,29,21,43,23.70
2015,06,29,21,44,23.70
2015,06,29,21,45,23.70
2015,06,29,21,46,23.70
2015,06,29,21,47,23.70
2015,06,29,21,48,23.70
2015,06,29,21,49,23.60
2015,06,29,21,50,23.60
2015,06,29,21,51,23.60
2015,06,29,21,52,23.60
2015,06,29,21,53,23.60
2015,06,29,21,54,23.60
2015,06,29,21,55,23.60
2015,06,29,21,56,23.60
2015,06,29,21,57,23.40
2015,06,29,21,58,23.40
2015,06,29,21,59,23.40
2015,06,29,22,00,23.40
2015,06,29,22,01,23.40
2015,06,29,22,02,23.40
2015,06,29,22,03,23.40
2015,06,29,22,04,23.30
2015,06,29,22,05,23.30
2015,06,29,22,06,23.30
2015,06,29,22,07,23.30
2015,06,29,22,08,23.30
2015,06,29,22,09,23.30
2015,06,29,22,10,23.20
2015,06,29,22,11,23.20
2015,06,29,22,12,23.20
2015,06,29,22,13,23.10
2015,06,29,22,14,22.90
2015,06,29,22,15,22.80
2015,06,29,22,16,22.70
2015,06,29,22,17,22.70
2015,06,29,22,18,22.60
2015,06,29,22,19,22.50
2015,06,29,22,20,22.40
2015,06,29,22,21,22.30
2015,06,29,22,22,22.30
2015,06,29,22,23,22.20
2015,06,29,22,24,22.10
2015,06,29,22,25,22.00
2015,06,29,22,26,22.00
2015,06,29,22,27,22.00
2015,06,29,22,28,21.90
2015,06,29,22,29,21.90
2015,06,29,22,30,21.90
2015,06,29,22,31,21.90
2015,06,29,22,32,21.90
2015,06,29,22,33,21.80
2015,06,29,22,34,21.80
2015,06,29,22,35,21.70
2015,06,29,22,36,21.70
2015,06,29,22,37,21.70
2015,06,29,22,38,21.70
2015,06,29,22,39,21.70
2015,06,29,22,40,21.70
2015,06,29,22,41,21.80
2015,06,29,22,42,21.80
2015,06,29,22,43,21.90
2015,06,29,22,44,22.00
2015,06,29,22,45,22.00
2015,06,29,22,46,22.10
2015,06,29,22,47,22.20
2015,06,29,22,48,22.30
2015,06,29,22,49,22.30
2015,06,29,22,50,22.30
2015,06,29,22,51,22.40
2015,06,29,22,52,22.40
2015,06,29,22,53,22.40
2015,06,29,22,54,22.40
2015,06,29,22,55,22.40
2015,06,29,22,56,22.40
2015,06,29,22,57,22.40
2015,06,29,22,58,22.50
2015,06,29,22,59,22.50
2015,06,29,23,00,22.60
2015,06,29,23,01,22.70
2015,06,29,23,02,22.80
2015,06,29,23,03,22.80
2015,06,29,23,04,22.80
2015,06,29,23,05,22.80
2015,06,29,23,06,22.90
2015,06,29,23,07,22.90
2015,06,29,23,08,22.90
2015,06,29,23,09,22.90
2015,06,29,23,10,22.90
2015,06,29,23,11,22.90
2015,06,29,23,12,22.80
2015,06,29,23,13,22.80
2015,06,29,23,14,22.70
2015,06,29,23,15,22.60
2015,06,29,23,16,22.60
2015,06,29,23,17,22.50
2015,06,29,23,18,22.40
2015,06,29,23,19,22.40
2015,06,29,23,20,22.30
2015,06,29,23,21,22.30
2015,06,29,23,22,22.20
2015,06,29,23,23,22.10
2015,06,29,23,24,22.10
2015,06,29,23,25,22.10
2015,06,29,23,26,22.10
2015,06,29,23,27,22.10
2015,06,29,23,28,22.10
2015,06,29,23,29,22.10
2015,06,29,23,30,22.10
2015,06,29,23,31,22.10
2015,06,29,23,32,22.10
2015,06,29,23,33,22.10
2015,06,29,23,34,22.10
2015,06,29,23,35,22.10
2015,06,29,23,36,22.20
2015,06,29,23,37,22.20
2015,06,29,23,38,22.20
2015,06,29,23,39,22.20
2015,06,29,23,40,22.30
2015,06,29,23,41,22.30
2015,06,29,23,42,22.30
2015,06,29,23,43,22.30
2015,06,29,23,44,22.30
2015,06,29,23,45,22.30
2015,06,29,23,46,22.30
2015,06,29,23,47,22.30
2015,06,29,23,48,22.30
2015,06,29,23,49,22.30
2015,06,29,23,50,22.30
2015,06,29,23,51,22.30
2015,06,29,23,52,22.30
2015,06,29,23,53,22.30
2015,06,29,23,54,22.30
2015,06,29,23,55,22.30
2015,06,29,23,56,22.30
2015,06,29,23,57,22.30
2015,06,29,23,58,22.30
2015,06,29,23,59,22.30
